Wind_Speed
14 15 15 14 13 12 11 11 10 9 8 8 7 6 5 4 4 3 3 4 4 3 4 4 4 4 4 5 7 7 8 8 9 9 9 9 9 10 10 11 11 12 13
12 13 13 13 13 12 11 10 9 9 9 8 7 6 5 5 4 4 4 4 5 5 5 5 5 6 6 6 7 8 9 10 10 10 10 11 11 12 12 13 13 14 14
9 11 12 12 12 12 11 10 9 9 9 8 7 7 7 7 5 4 4 5 5 5 6 6 6 7 7 7 8 8 9 11 12 12 12 12 12 13 14 14 15 15 16
8 8 9 10 11 11 11 10 10 10 10 9 9 8 7 7 6 6 6 6 6 6 6 7 7 8 8 8 9 9 10 11 12 13 13 13 14 14 15 15 16 16 16
6 6 7 8 9 9 10 10 10 9 9 9 9 9 8 8 8 7 7 8 8 7 7 7 8 8 8 8 9 9 10 11 12 13 13 13 14 15 16 16 17 16 17
6 6 6 6 6 7 8 9 9 9 9 9 9 9 9 9 9 9 9 8 8 8 7 7 8 8 8 9 10 10 11 11 12 13 14 14 14 14 15 16 16 17 18
6 6 6 5 6 6 7 8 8 8 9 9 9 9 9 9 9 9 9 9 9 9 9 8 8 9 9 9 10 10 11 12 12 13 14 14 14 14 15 16 17 18 19
7 7 7 6 5 6 7 8 8 8 8 8 8 9 10 10 10 10 10 10 10 10 10 9 10 10 10 10 10 10 11 12 13 13 13 14 15 15 16 16 17 18 19
8 7 7 7 6 6 7 7 8 9 9 9 9 9 10 10 10 10 10 11 11 11 10 10 11 11 11 11 11 11 11 12 12 13 13 14 15 15 16 16 17 18 18
8 8 8 7 6 6 6 7 8 9 10 9 10 10 10 11 11 11 12 12 12 12 11 11 12 11 12 12 11 11 12 13 13 14 14 14 15 16 17 17 18 18 19
9 9 9 9 8 7 7 7 8 10 11 10 10 11 11 12 12 13 13 13 13 12 12 12 12 12 12 12 12 13 13 14 14 15 15 16 17 17 18 19 19 19 20
11 11 10 10 9 9 8 8 9 10 11 11 11 12 12 13 14 14 14 14 13 12 11 12 13 13 13 13 13 14 14 15 15 16 16 17 18 18 19 19 19 20 20
12 13 12 12 11 11 10 10 11 12 12 12 13 13 13 14 14 15 15 15 14 13 13 13 13 14 14 14 14 14 15 15 16 17 17 18 18 19 19 19 19 19 20
14 14 14 14 13 13 13 13 13 14 15 14 14 15 15 15 15 16 16 16 15 15 14 14 14 15 15 15 16 16 16 16 17 18 19 19 19 19 20 20 20 20 21
16 16 16 16 16 15 15 15 15 16 16 16 16 17 17 17 16 16 16 16 15 15 15 15 15 16 16 17 17 17 17 18 18 19 20 20 20 20 20 20 20 21 21
18 17 17 18 19 18 17 17 17 17 17 18 18 19 19 19 17 17 17 16 16 16 15 16 16 16 17 18 18 19 19 18 19 19 20 20 20 20 20 20 20 21 22
17 19 19 20 20 20 19 19 19 19 19 20 20 20 21 20 18 18 17 16 16 16 17 17 17 17 18 18 19 19 20 20 20 20 20 20 20 20 20 20 21 21 21
21 21 21 22 22 21 21 21 20 21 21 21 22 22 21 20 19 19 18 18 18 18 18 18 18 18 18 19 19 19 19 20 21 21 21 21 21 21 21 21 22 22 22
23 23 23 24 24 23 23 23 22 22 22 22 23 22 22 22 21 21 20 20 19 19 19 19 20 20 20 20 20 20 21 21 21 21 21 22 22 22 22 23 22 22 22
24 26 25 24 24 24 25 25 24 23 24 23 23 23 23 23 23 22 21 20 21 21 21 21 21 21 21 21 21 22 23 22 22 22 22 23 23 23 23 23 23 23 23
25 26 26 26 25 26 26 26 25 25 25 25 25 26 25 23 24 23 22 22 22 22 22 23 23 22 22 22 23 24 24 24 23 23 24 24 24 24 24 24 24 24 24
27 27 27 27 27 27 27 27 27 27 27 27 27 27 26 25 25 24 23 23 23 24 24 24 23 24 23 23 24 24 25 26 26 26 25 25 25 25 25 25 24 24 24
28 28 28 28 28 28 28 28 28 28 28 27 27 27 27 27 27 25 25 25 25 25 26 25 25 25 25 25 25 25 26 27 27 27 26 26 25 25 25 25 25 24 25
29 29 29 29 29 30 30 30 29 28 28 28 27 27 27 27 28 28 27 27 27 27 27 27 26 26 26 26 26 26 25 25 26 26 26 26 26 26 26 26 27 26 26
31 31 31 30 31 31 30 30 30 30 30 29 29 29 29 29 30 30 29 29 29 29 28 28 28 28 28 27 27 27 26 25 25 25 25 25 26 26 26 26 26 26 26
31 31 31 32 32 32 31 31 31 32 31 31 30 30 31 32 31 30 30 30 30 30 29 29 29 29 29 28 28 27 26 26 26 25 25 25 25 25 25 26 25 25 25
Wind_Direction
45 46 46 49 52 53 52 52 50 50 50 49 48 45 41 33 25 13 359 350 342 327 317 309 300 293 286 275 269 269 268 268 270 270 268 267 266 262 264 267 267 267 268
43 45 46 46 48 49 48 46 43 44 42 40 35 27 22 20 13 4 3 350 337 327 320 308 299 292 288 283 276 272 271 273 274 272 272 272 272 269 268 269 269 269 270
37 40 43 44 45 45 43 39 34 32 30 28 27 21 15 11 8 1 353 344 333 322 312 308 301 289 284 282 276 276 276 276 276 277 276 275 275 274 271 272 272 270 270
27 36 40 39 40 39 35 31 28 27 25 25 25 22 20 17 12 359 347 340 337 326 309 302 301 294 286 284 279 275 278 275 275 277 277 274 274 276 274 272 272 272 271
14 22 31 32 33 31 26 22 20 21 20 19 18 17 15 10 2 357 350 343 339 334 322 307 300 298 290 288 286 284 282 280 277 277 278 280 279 276 275 275 276 276 274
6 9 17 21 27 28 23 19 14 14 12 10 9 7 5 3 1 357 352 347 339 333 325 317 311 304 293 289 289 288 287 286 283 280 281 280 279 279 276 275 277 280 279
354 358 356 359 16 20 20 18 14 11 7 3 360 358 357 356 353 350 347 345 339 332 326 323 319 312 304 295 286 285 286 289 287 285 284 284 283 281 281 278 279 281 280
336 339 337 343 1 4 2 3 5 5 1 355 352 351 348 346 346 344 340 336 334 333 328 325 319 315 311 306 298 294 289 287 285 283 282 283 284 284 284 282 280 280 281
319 319 320 330 340 345 348 349 353 353 353 352 348 347 347 344 344 342 338 333 330 328 325 320 317 314 314 311 305 301 293 289 288 288 286 287 288 285 284 286 285 282 281
301 309 313 318 322 325 332 339 342 352 354 353 348 345 346 343 341 338 334 329 325 321 317 312 310 311 309 308 306 300 297 291 288 289 290 289 288 286 285 284 285 284 283
291 303 306 306 304 307 317 327 335 340 342 341 341 339 338 336 333 330 326 326 323 319 314 310 308 309 307 305 304 300 297 297 293 291 290 291 288 285 285 286 287 286 285
289 297 297 296 299 305 310 319 324 329 331 331 329 329 329 328 325 324 323 322 320 316 312 312 312 309 308 305 303 301 298 296 296 296 294 292 291 289 288 286 286 286 285
287 290 289 292 298 299 302 308 314 317 319 317 317 320 321 319 318 320 319 315 313 311 309 309 310 310 308 306 304 302 298 295 295 295 296 294 293 291 290 288 287 287 289
285 285 284 287 291 293 298 301 304 307 312 312 311 313 314 313 314 316 316 313 309 308 307 306 308 308 307 306 304 302 301 299 297 296 296 296 297 295 292 291 291 291 292
279 281 282 283 285 287 291 294 296 300 304 308 310 312 313 311 310 312 313 313 312 310 308 306 308 306 305 305 305 305 303 301 299 300 299 296 295 296 296 293 292 293 293
278 280 280 285 286 285 287 289 291 294 298 301 304 308 308 309 308 310 311 310 309 309 309 307 306 305 305 305 305 305 303 303 301 301 300 297 295 296 296 294 293 294 294
277 279 281 282 283 281 282 284 287 290 293 297 300 304 307 307 305 307 309 309 310 310 307 306 306 304 303 303 303 305 305 302 301 300 298 297 296 297 296 295 294 295 294
276 278 278 282 282 282 283 284 286 288 290 294 297 300 304 305 304 303 304 304 304 305 305 308 308 308 307 304 301 302 304 302 300 299 298 297 297 298 296 296 296 295 295
277 278 279 282 282 281 281 282 284 286 288 291 295 296 298 302 301 300 299 299 298 299 301 304 304 305 305 304 302 301 301 300 301 300 299 298 298 297 296 296 296 296 298
274 278 278 280 279 280 280 281 283 285 287 288 291 293 295 296 296 296 296 295 294 296 297 300 301 302 303 302 301 298 297 297 298 299 300 300 299 297 296 297 297 296 297
272 276 277 278 279 279 279 281 283 284 284 286 289 290 290 291 293 293 294 294 294 296 296 298 298 300 301 300 299 298 296 297 296 297 297 298 297 297 296 296 296 297 297
271 274 276 277 278 280 281 281 281 282 283 286 289 291 290 290 293 293 291 291 293 295 296 297 296 298 300 300 299 299 295 295 294 294 294 294 295 295 295 295 296 296 295
268 270 271 274 276 279 281 282 282 282 283 284 286 289 291 291 293 295 295 292 292 293 294 295 295 296 298 299 299 298 296 294 293 293 292 293 293 293 294 294 294 295 294
264 266 269 273 277 279 281 283 282 282 283 283 284 286 287 288 289 292 294 294 292 293 293 293 293 294 296 296 297 298 299 299 297 294 293 294 293 294 293 293 293 294 294
265 268 269 272 275 278 280 281 283 282 280 281 281 283 285 287 287 288 290 292 292 292 294 294 294 295 296 296 296 296 296 296 297 296 295 294 294 293 294 294 294 294 293
267 270 270 272 274 276 278 279 281 282 280 280 280 283 284 285 287 287 288 290 292 292 293 293 293 293 294 294 293 292 292 293 293 294 294 294 294 294 293 293 293 294 294
Height
5898 5896 5894 5892 5890 5889 5888 5887 5886 5885 5884 5884 5883 5882 5882 5881 5881 5880 5880 5880 5879 5878 5878 5878 5877 5877 5877 5877 5877 5877 5877 5877 5877 5877 5877 5877 5877 5878 5877 5877 5878 5878 5878
5900 5898 5896 5894 5892 5891 5890 5889 5887 5886 5885 5885 5884 5883 5882 5881 5881 5880 5880 5879 5878 5878 5877 5876 5876 5876 5875 5875 5875 5875 5875 5875 5875 5875 5875 5875 5876 5875 5875 5875 5875 5875 5875
5901 5899 5897 5896 5894 5892 5891 5890 5889 5888 5887 5886 5884 5884 5882 5881 5880 5880 5880 5879 5878 5877 5876 5875 5875 5874 5874 5873 5873 5873 5873 5873 5873 5872 5873 5873 5873 5872 5873 5872 5872 5872 5872
5902 5900 5899 5897 5895 5894 5892 5891 5890 5889 5887 5886 5885 5884 5883 5882 5881 5880 5879 5878 5877 5875 5875 5874 5873 5873 5872 5871 5871 5871 5871 5870 5870 5870 5869 5869 5869 5869 5869 5869 5869 5868 5868
5902 5901 5900 5898 5897 5895 5894 5892 5891 5889 5888 5887 5886 5884 5883 5882 5881 5880 5879 5877 5876 5874 5873 5872 5872 5871 5870 5869 5869 5868 5868 5867 5867 5867 5866 5866 5865 5865 5865 5865 5865 5864 5864
5903 5901 5900 5898 5896 5895 5894 5893 5892 5890 5889 5887 5886 5885 5883 5882 5881 5879 5878 5877 5875 5874 5872 5871 5870 5869 5868 5867 5867 5866 5865 5865 5864 5863 5863 5862 5862 5861 5861 5861 5860 5860 5859
5902 5901 5900 5898 5896 5895 5894 5893 5892 5890 5889 5887 5886 5885 5883 5882 5880 5879 5877 5875 5874 5872 5871 5869 5868 5867 5865 5865 5864 5863 5862 5862 5861 5860 5859 5859 5858 5857 5857 5857 5856 5855 5854
5902 5901 5900 5898 5896 5895 5894 5892 5891 5890 5888 5887 5885 5884 5883 5881 5879 5878 5876 5874 5872 5871 5869 5868 5866 5865 5863 5862 5861 5860 5859 5858 5858 5857 5856 5855 5855 5854 5853 5852 5851 5850 5849
5901 5900 5899 5898 5896 5894 5893 5892 5890 5889 5887 5886 5884 5883 5881 5880 5878 5876 5874 5872 5870 5869 5867 5865 5864 5863 5861 5860 5859 5857 5856 5855 5854 5853 5852 5852 5851 5850 5849 5848 5847 5846 5845
5899 5898 5897 5896 5895 5893 5892 5891 5890 5888 5886 5885 5883 5882 5880 5878 5876 5874 5872 5870 5868 5866 5864 5863 5862 5860 5859 5858 5856 5854 5853 5852 5851 5850 5849 5848 5847 5846 5844 5843 5842 5841 5840
5897 5896 5895 5894 5893 5892 5891 5889 5888 5886 5885 5883 5882 5880 5878 5876 5874 5872 5870 5868 5866 5864 5862 5861 5859 5858 5856 5855 5853 5852 5850 5849 5848 5847 5845 5844 5842 5841 5840 5838 5837 5836 5835
5894 5893 5892 5891 5891 5890 5889 5887 5886 5884 5883 5881 5880 5878 5876 5874 5872 5870 5867 5865 5863 5861 5859 5858 5856 5855 5853 5852 5850 5848 5847 5846 5844 5843 5841 5840 5838 5837 5835 5833 5832 5831 5829
5891 5890 5889 5889 5888 5887 5886 5885 5884 5882 5880 5879 5877 5876 5873 5871 5869 5867 5864 5862 5860 5858 5856 5855 5853 5852 5850 5848 5847 5845 5843 5842 5840 5839 5837 5835 5833 5831 5830 5828 5826 5825 5824
5888 5887 5886 5886 5885 5884 5883 5882 5881 5880 5878 5876 5874 5871 5869 5867 5866 5863 5861 5858 5857 5855 5853 5852 5850 5848 5847 5845 5843 5841 5840 5838 5836 5835 5833 5831 5829 5826 5825 5823 5821 5820 5818
5884 5884 5883 5882 5881 5881 5880 5878 5877 5876 5875 5873 5870 5868 5866 5864 5862 5860 5858 5855 5853 5851 5850 5848 5846 5844 5842 5841 5839 5837 5835 5834 5832 5830 5828 5826 5824 5822 5820 5818 5816 5815 5813
5879 5879 5878 5878 5877 5876 5875 5875 5874 5872 5871 5869 5866 5864 5862 5860 5858 5856 5854 5852 5850 5848 5846 5845 5843 5840 5838 5836 5834 5832 5830 5829 5827 5825 5823 5821 5819 5817 5815 5813 5811 5809 5808
5874 5873 5873 5873 5872 5871 5870 5869 5869 5868 5866 5864 5862 5860 5858 5855 5853 5852 5850 5848 5846 5844 5842 5840 5838 5836 5833 5831 5829 5827 5825 5823 5821 5819 5817 5815 5814 5812 5809 5807 5805 5804 5802
5869 5868 5868 5867 5866 5865 5864 5864 5863 5862 5861 5859 5857 5855 5853 5851 5849 5848 5846 5844 5842 5840 5838 5836 5834 5831 5829 5826 5824 5821 5820 5818 5816 5814 5812 5810 5808 5806 5804 5802 5800 5798 5796
5864 5863 5862 5861 5860 5860 5859 5858 5858 5856 5855 5853 5851 5849 5848 5846 5845 5843 5841 5839 5837 5835 5833 5831 5829 5826 5823 5821 5818 5816 5814 5812 5810 5808 5806 5804 5802 5800 5798 5796 5794 5792 5790
5857 5857 5856 5855 5855 5854 5853 5852 5851 5850 5848 5847 5845 5843 5841 5840 5838 5837 5835 5833 5831 5829 5827 5825 5823 5820 5818 5815 5813 5810 5808 5806 5805 5803 5801 5799 5796 5794 5792 5790 5788 5786 5784
5850 5850 5849 5849 5848 5847 5846 5845 5844 5843 5841 5839 5838 5836 5834 5832 5831 5830 5828 5827 5825 5823 5821 5819 5817 5814 5812 5809 5807 5804 5802 5800 5798 5796 5794 5792 5790 5788 5786 5783 5781 5779 5777
5843 5842 5842 5841 5841 5840 5839 5838 5837 5836 5834 5832 5831 5829 5827 5825 5824 5823 5821 5820 5818 5816 5814 5812 5810 5808 5805 5803 5800 5798 5795 5793 5791 5790 5787 5785 5783 5781 5779 5777 5774 5772 5770
5834 5835 5834 5834 5833 5832 5831 5830 5829 5828 5827 5826 5824 5822 5820 5819 5817 5816 5814 5813 5811 5809 5807 5805 5803 5801 5798 5796 5793 5790 5788 5786 5784 5782 5780 5778 5776 5774 5772 5769 5767 5765 5763
5826 5826 5826 5826 5825 5824 5823 5822 5821 5820 5819 5818 5817 5815 5814 5813 5811 5809 5808 5806 5804 5801 5799 5797 5795 5793 5790 5788 5785 5783 5781 5779 5777 5775 5773 5771 5769 5767 5764 5762 5760 5758 5756
5817 5817 5817 5817 5816 5815 5815 5814 5813 5812 5811 5810 5808 5807 5806 5805 5803 5802 5800 5798 5796 5794 5791 5789 5786 5784 5782 5780 5777 5775 5773 5771 5769 5767 5765 5763 5761 5759 5757 5755 5753 5751 5749
5807 5808 5807 5807 5807 5806 5806 5805 5804 5803 5802 5801 5800 5799 5797 5796 5794 5793 5791 5789 5787 5785 5782 5780 5778 5775 5773 5771 5769 5767 5765 5763 5762 5760 5758 5756 5754 5752 5750 5748 5746 5744 5742